TimeCST,TemperatureF,Dew PointF,Humidity,Sea Level PressureIn,VisibilityMPH,Wind Direction,Wind SpeedMPH,Gust SpeedMPH,PrecipitationIn,Events,Conditions,WindDirDegrees,DateUTC
2:15 AM,28.4,26.6,93,30.22,5.0,NE,6.9,-,N/A,,Overcast,50,2013-12-08 08:15:00
2:35 AM,28.4,26.6,93,30.25,8.0,Calm,Calm,-,N/A,,Overcast,0,2013-12-08 08:35:00
2:55 AM,28.4,26.6,93,30.26,9.0,Calm,Calm,-,N/A,,Overcast,0,2013-12-08 08:55:00
3:15 AM,28.4,26.6,93,30.26,5.0,Calm,Calm,-,N/A,,Overcast,0,2013-12-08 09:15:00
3:35 AM,28.4,26.6,93,30.22,2.5,NE,3.5,-,N/A,,Overcast,40,2013-12-08 09:35:00
3:55 AM,28.4,28.4,100,30.22,4.0,Calm,Calm,-,N/A,,Overcast,0,2013-12-08 09:55:00
4:15 AM,28.4,28.4,100,30.22,8.0,Calm,Calm,-,N/A,,Overcast,0,2013-12-08 10:15:00
4:35 AM,28.4,26.6,93,30.21,8.0,Calm,Calm,-,N/A,,Overcast,0,2013-12-08 10:35:00
4:55 AM,28.4,26.6,93,30.20,5.0,Calm,Calm,-,N/A,,Overcast,0,2013-12-08 10:55:00
5:30 AM,28.4,28.4,100,30.21,4.0,North,4.6,-,N/A,,Overcast,360,2013-12-08 11:30:00
5:55 AM,28.4,28.4,100,30.22,5.0,Calm,Calm,-,N/A,,Overcast,0,2013-12-08 11:55:00
6:55 AM,28.4,28.4,100,30.21,4.0,Calm,Calm,-,N/A,,Overcast,0,2013-12-08 12:55:00
7:55 AM,30.2,30.2,100,30.22,3.0,Calm,Calm,-,N/A,,Overcast,0,2013-12-08 13:55:00
8:55 AM,28.4,28.4,100,30.20,6.0,Calm,Calm,-,N/A,,Overcast,0,2013-12-08 14:55:00
9:55 AM,30.2,30.2,100,30.19,4.0,Calm,Calm,-,N/A,,Overcast,0,2013-12-08 15:55:00
10:55 AM,30.2,30.2,100,30.18,2.0,Calm,Calm,-,N/A,,Overcast,0,2013-12-08 16:55:00
11:55 AM,30.2,30.2,100,30.15,2.0,Calm,Calm,-,N/A,,Overcast,0,2013-12-08 17:55:00
12:55 PM,33.8,32.0,93,30.12,0.5,Calm,Calm,-,N/A,Fog,Fog,0,2013-12-08 18:55:00
1:52 PM,32.0,32.0,100,30.14,0.5,Calm,Calm,-,N/A,Fog,Fog,0,2013-12-08 19:52:00
2:51 PM,33.8,33.8,100,30.17,0.2,Calm,Calm,-,N/A,Fog,Fog,0,2013-12-08 20:51:00
3:55 PM,33.8,33.8,100,30.09,1.0,Calm,Calm,-,N/A,,Overcast,0,2013-12-08 21:55:00
4:52 PM,33.8,33.8,100,30.10,3.0,WSW,3.5,-,N/A,,Overcast,240,2013-12-08 22:52:00
5:55 PM,33.8,33.8,100,30.11,6.0,WSW,5.8,-,N/A,,Overcast,240,2013-12-08 23:55:00
6:50 PM,33.8,33.8,100,30.12,5.0,SW,5.8,-,N/A,,Overcast,230,2013-12-09 00:50:00